Showing default

COSMOS 198, 3081

Orbit data source: Space-Track

COSMOS 198, 3081 is a payload satellite owned by TSKBM (CIS) in LEO that was launched on Wed, 27 Dec 1967 UTC via a TSIKLON-2A launch vehicle from the Tyuratam Missile And Space Complex (TTMTR). Payload-class satellites include a variety of spacecraft equipped with specific instruments for various scientific and technological missions. These include communications satellites like Starlink; space stations such as the ISS; scientific satellites like the Hubble; Earth observation satellites from companies like Planet Labs, Umbra, and HawkEye 360; GPS; miniature CubeSats for education and research; and military/defense satellites.

Loading next visibility...
Identifier
3081, 1967-127A
Orbit
LEO
Country
Flag of CISCIS
Related business
Manufacturer
TSKBM/KB1
Mission
Spacecraft
Bus & Motor
US-A ROCH, Unknown motor
Mass
3,800 kg wet, 1,140 kg dry
Launch date (UTC)
1967-12-27 (59 years ago)
Launch vehicle
TSIKLON-2A
Launch site
Tyuratam Missile And Space Complex (TTMTR)
Object type
Payload
Rocket body
Debris
Shape & HBR
CYL + CONE, 2.9 m
Radar Cross Section
Large (>1 m²)

Expand to show TLE details & history
Last TLE update: 7 hours ago

TLE from 7 hours ago
0 COSMOS 198
1 03081U 67127A   26208.92497157 -.00000083  00000-0  52002-5 0  9993
2 03081  65.1418 175.1122 0015684  36.8857 323.3284 13.93395592979255
Epoch: 2026-07-27T22:11Z
TLE epoch observation values (Epoch: 2026-07-27T22:11:57.543Z)
Latitude
-0.0001°
Longitude
-103.47917°
Altitude
909.533 km
Speed
7.402 km/s
True Right ascension
11h 40m 26s
True Declination
0° 00' 00"
Sunlit
Object was in daylight at epoch
Visualization orbit readout
Latitude
Unknown
Longitude
Unknown
Altitude
Unknown
Speed
Unknown
Apparent Right ascension
Unknown
Apparent Declination
Unknown
Sunlit
N/A
Visualization observer readout
Local Sidereal Time
18:15:44
Azimuth
Unknown
Elevation
Unknown
Doppler factor
Unknown
Orbital elements
Apogee altitude
926.781 km
Perigee altitude
903.903 km
Semi-major axis
7,293.479 km
Eccentricity
0.00157
Inclination
65.1418°
RAAN
175.1122°
Arg. of periapsis
36.8857°
True anomaly
323.22089°
Mean anomaly
323.3284°
Eccentric anomaly
323.27466°
Mean motion
3.48451 °/min
Orbital period
103.31 mins
BSTAR
0.0000052002
Loading maneuver chart data...
Computing Atmospheric mass density...
Loading historical data...
Loading historical data...
Loading historical data...
Loading historical data...
Loading historical data...
Loading historical data...
Loading historical data...
Other satellites on launch #127 in the year 1967 (1967-12-27 UTC)

Documentation

Showing up to 5 results
|